                (C) Copyright 2006 OAA/ComputingSection

write mail from CFAD0::NAKANO on 2006-12-06 04:13:52(JST).

 



    P/2004 F3 (NEAT)

Epoch 2004 Dec. 21.0 TT = JDT 2453360.5  

T 2005 Jan. 4.29774 TT                                  Nakano

q   2.8640702            (2000.0)            P               Q

n   0.12252862     Peri.  176.12452     -0.25699733     +0.92786539

a   4.0146191      Node    78.83140     -0.89390636     -0.12197407

e   0.2865898      Incl.   15.98795     -0.36726529     -0.35240338

P   8.04

From 995 observations 2004 Jan. 29-2006 June 8, mean residual 0".50.



NAKANO

         **** Don't distribute anyone except personal use only ****

                (C) Copyright 2006 OAA/ComputingSection

write mail from CFAD0::NAKANO on 2006-06-20 02:59:40(JST).

 



    P/2004 F3 (NEAT)

Epoch 2004 Dec. 21.0 TT = JDT 2453360.5  

T 2005 Jan. 4.29112 TT                                  Nakano

q   2.8640790            (2000.0)            P               Q

n   0.12252385     Peri.  176.12323     -0.25701927     +0.92785919

a   4.0147233      Node    78.83133     -0.89390336     -0.12199490

e   0.2866061      Incl.   15.98798     -0.36725723     -0.35241249

P   8.04

From 970 observations 2004 Jan. 29-2005 Oct. 9, mean residual 0".49.



NAKANO

         **** Don't distribute anyone except personal use only ****

                (C) Copyright 2005 OAA/ComputingSection

write mail from CFAD0::NAKANO on 2005-11-03 23:34:28(JST).

 





    P/2004 F3 (NEAT)                                                      

Epoch 2004 Dec. 21.0 TT = JDT 2453360.5  

T 2005 Jan. 4.28513 TT                                  Nakano

q   2.8640936            (2000.0)            P               Q

n   0.12252499     Peri.  176.12213     -0.25704515     +0.92785180

a   4.0146985      Node    78.83085     -0.89389907     -0.12201864

e   0.2865981      Incl.   15.98805     -0.36724955     -0.35242373

P   8.04

From 772 observations 2004 Jan. 29-2005 Mar. 25, mean residual 0".45.



NAKANO

         **** Don't distribute anyone except personal use only ****

                (C) Copyright 2005 OAA/ComputingSection

write mail from CFAD0::NAKANO on 2005-04-06 02:03:09(JST).



    P/2004 F3 (NEAT)                                                      

Epoch 2004 Dec. 21.0 TT = JDT 2453360.5  

T 2005 Jan. 4.27726 TT                                  Nakano

q   2.8641513            (2000.0)            P               Q

n   0.12253036     Peri.  176.11876     -0.25709794     +0.92783730

a   4.0145811      Node    78.83096     -0.89389233     -0.12206987

e   0.2865629      Incl.   15.98802     -0.36722903     -0.35244417

P   8.04 (+/- 0.02 day)

From 753 observations 2004 Jan. 29-July 27, mean residual 0".44.

         **** Don't distribute anyone except personal use only ****

                (C) Copyright 2004 OAA/ComputingSection

write mail from CFAD0::NAKANO on 2004-08-04 23:10:27(JST).

---------------------------------------------------------------------------

    Syuichi Nakano, P. O. Box No. 32, Sumoto, Hyogo-Ken, 656-8691 Japan

     An Associate of the Minor Planet Center   snakano@cfa.harvard.edu

         http://www.oaa.gr.jp/   08-04-2004, 23:27:51 +09:00 (JST)

               OS/2 and Digital UNIX in Operating Systems

             **** Please reply ONLY to nakano@oaa.gr.jp ****









    P/2004 F3 (NEAT)                                                      

Epoch 2004 Dec. 21.0 TT = JDT 2453360.5  

T 2005 Jan. 4.27659 TT                                  Nakano

q   2.8641796            (2000.0)            P               Q

n   0.12253194     Peri.  176.11786     -0.25711391     +0.92783276

a   4.0145466      Node    78.83088     -0.89389009     -0.12208497

e   0.2865497      Incl.   15.98804     -0.36722330     -0.35245088

P   8.04 (+/- 0.02 day)

From 700 observations 2004 Jan. 29-June 29, mean residual 0".44.



NAKANO

         **** Don't distribute anyone except personal use only ****

                (C) Copyright 2004 OAA/ComputingSection

write mail from CFAD0::NAKANO on 2004-07-03 22:20:30(JST).

 



    P/2004 F3 (NEAT)                                                      

Epoch 2004 Dec. 21.0 TT = JDT 2453360.5  

T 2005 Jan. 4.26965 TT                                  Nakano

q   2.8643122            (2000.0)            P               Q

n   0.12254055     Peri.  176.11186     -0.25719942     +0.92780920

a   4.0143586      Node    78.83157     -0.89388011     -0.12216879

e   0.2864832      Incl.   15.98798     -0.36718770     -0.35248386

P   8.04 (+/- 0.04 day)

From 553 observations 2004 Jan. 29-May 29, mean residual 0".45.



NAKANO

         **** Don't distribute anyone except personal use only ****

                (C) Copyright 2004 OAA/ComputingSection

write mail from CFAD0::NAKANO on 2004-06-02 06:08:27(JST).



◎P/2004 F3の軌道と予報位置です



  彗星は,明るく15等級で観測されています. CCD全光度は,上尾の

門田健一氏が4月24日に15.6等,秦野の浅見敦夫氏が15.4等と報告し

ています.



    P/2004 F3 (NEAT)                                                      

Epoch 2004 Dec. 21.0 TT = JDT 2453360.5  

T 2005 Jan. 4.31168 TT                                  Nakano

q   2.8641550            (2000.0)            P               Q

n   0.12253157     Peri.  176.12612     -0.25699904     +0.92786347

a   4.0145548      Node    78.82975     -0.89390319     -0.12197057

e   0.2865573      Incl.   15.98834     -0.36727181     -0.35240965

P   8.04 (+/- 0.08 day)

From 388 observations 2004 Jan. 29-2004 Apr. 30, mean residual 0".45.

 

Date/        TT  R.A.(2000) Decl.     Delta   r     Daily motion  Mag.  Moon Age

              h    h  m       。  ,                      ,  / PA 。  m1      。

2004 Apr. 25 12  13 23.75  +12 07.8   2.239  3.161    10.1 / 267  15.2   92  .29

          26 12  13 23.05  +12 07.3   2.241  3.159    10.0 / 266  15.2   81  .38

          27 12  13 22.37  +12 06.5   2.244  3.157     9.9 / 265  15.2   69  .48

          28 12  13 21.70  +12 05.6   2.247  3.155     9.8 / 263  15.2   57  .58

          29 12  13 21.03  +12 04.5   2.250  3.153     9.7 / 262  15.2   45  .67

          30 12  13 20.38  +12 03.2   2.253  3.151     9.5 / 261  15.2   33  .77

     May   1 12  13 19.74  +12 01.7   2.256  3.149     9.4 / 260  15.2   23  .85

           2 12  13 19.11  +12 00.0   2.260  3.147     9.3 / 258  15.2   16  .92

           3 12  13 18.49  +11 58.1   2.264  3.145     9.1 / 257  15.2   20  .97

           4 12  13 17.88  +11 56.0   2.268  3.142     9.0 / 255  15.3   32 1.00

           5 12  13 17.29  +11 53.8   2.273  3.140     8.9 / 254  15.3   45  .99

           6 12  13 16.71  +11 51.3   2.277  3.138     8.7 / 252  15.3   59  .96

           7 12  13 16.14  +11 48.7   2.282  3.136     8.6 / 251  15.3   73  .90

           8 12  13 15.59  +11 45.8   2.287  3.134     8.4 / 249  15.3   88  .81

           9 12  13 15.05  +11 42.8   2.292  3.132     8.3 / 247  15.3  102  .72

          10 12  13 14.53  +11 39.6   2.298  3.130     8.2 / 246  15.3  115  .61

          11 12  13 14.02  +11 36.2   2.303  3.128     8.0 / 244  15.3  129  .50

          12 12  13 13.53  +11 32.7   2.309  3.126     7.9 / 242  15.3  141  .39

          13 12  13 13.06  +11 28.9   2.315  3.124     7.8 / 240  15.3  153  .29

          14 12  13 12.60  +11 25.0   2.322  3.122     7.6 / 238  15.3  162  .20

          15 12  13 12.16  +11 20.9   2.328  3.120     7.5 / 235  15.3  165  .13

          16 12  13 11.74  +11 16.7   2.335  3.118     7.4 / 233  15.3  159  .07

          17 12  13 11.34  +11 12.2   2.342  3.116     7.3 / 231  15.3  149  .03

          18 12  13 10.95  +11 07.6   2.349  3.114     7.2 / 228  15.3  138  .00

          19 12  13 10.58  +11 02.8   2.356  3.112     7.1 / 226  15.3  127  .00

          20 12  13 10.24  +10 57.9   2.363  3.110     7.0 / 223  15.3  116  .02

          21 12  13 09.91  +10 52.8   2.371  3.108     7.0 / 221  15.3  104  .05

          22 12  13 09.60  +10 47.5   2.378  3.106     6.9 / 218  15.3   93  .10

          23 12  13 09.31  +10 42.1   2.386  3.104     6.9 / 216  15.3   81  .16

          24 12  13 09.04  +10 36.5   2.394  3.103     6.8 / 213  15.3   70  .23

          25 12  13 08.79  +10 30.7   2.402  3.101     6.8 / 210  15.3   58  .32

          26 12  13 08.56  +10 24.9   2.410  3.099     6.8 / 207  15.3   46  .42

          27 12  13 08.35  +10 18.8   2.419  3.097     6.8 / 205  15.3   35  .52

          28 12  13 08.15  +10 12.6   2.427  3.095     6.8 / 202  15.3   23  .62

          29 12  13 07.98  +10 06.3   2.436  3.093     6.8 / 199  15.3   15  .72

          30 12  13 07.83  +09 59.9   2.445  3.091     6.9 / 196  15.3   15  .82

          31 12  13 07.70  +09 53.3   2.454  3.089     6.9 / 194  15.3   26  .90

     June  1 12  13 07.59  +09 46.5   2.463  3.087     7.0 / 191  15.4   39  .96

NAKANO

         **** Don't distribute anyone except personal use only ****

                (C) Copyright 2004 OAA/ComputingSection

write mail from CFAD0::NAKANO on 2004-05-02 05:58:04(JST).

 



   P/2004 F3 (NEAT)                                                      

T 2005 Jan. 4.18873 TT                                  Nakano

q   2.8644652            (2000.0)            P               Q

n   0.12238819     Peri.  176.08909     -0.25750316     +0.92772827

a   4.0176895      Node    78.83544     -0.89384698     -0.12247337

e   0.2870367      Incl.   15.98707     -0.36705544     -0.35259118

P   8.05 (+/- 0.24 day)

From 250 observations 2004 Mar. 15-Apr. 21.



NAKANO

         **** Don't distribute anyone except personal use only ****

                (C) Copyright 2004 OAA/ComputingSection

write mail from CFAD0::NAKANO on 2004-04-24 06:00:27(JST).

 



◎P/2004 F3の軌道と予報位置です



  3月31日の観測がASOのシェロ−ドと上尾の門田健一氏から報告されました.

彼らのCCD全光度は,それぞれ,15.7等と16.1等でした.



    P/2003 F3 (NEAT)                                                      

T 2005 Jan. 5.38629 TT                                  Nakano

q   2.8766753            (2000.0)            P               Q

